Tracking 19651 objects as of 23-Apr-2019
HD Live streaming from Space Station
objects crossing your sky now

FLOCK 4A 18

Track FLOCK 4A 18 now!
10-day predictions
FLOCK 4A 18 is classified as:


NORAD ID: 44089
Int'l Code: 2019-018M
Perigee: 499.2 km
Apogee: 517.7 km
Inclination: 97.5 °
Period: 94.6 minutes
Semi major axis: 6879 km
RCS: Unknown
Launch date: April 1, 2019
Source: United States (US)
Launch site: SRIHARIKOTA (SRI)
aabbcc
Your satellite tracking list
Your tracking list is empty




NASA's NSSDC Master Catalog

Two Line Element Set (TLE):
1 44089U 19018M   19112.71242070  .00000520  00000-0  26205-4 0  9997
2 44089  97.4625 173.0872 0013440 203.4475 156.6149 15.21513489  3245
Source of the keplerian elements: AFSPC